Date String (YYYY-MM-DD hh:mm:ss) UTC,Instrument flags,absolute air pressure of the measurement (hPa),sample flow rate (lpm),inlet stack bypass flow (lpm),air temperature of the measurement (°C),ambient temperature measured by the external sensor (°C),aerosol sample conditioner tube jacket temperature (°C),OPC LED temperature (°C),internal box temperature (°C),relative humidity of the measurement (%),span deviation,mass concentration of particles derived from Lorenz-Mie calculation of OPC scattering (μg/m³),mass concentration of particles derived from Lorenz-Mie calculation of OPC scattering (μg/m³),mass concentration of particles derived from Lorenz-Mie calculation of OPC scattering (μg/m³)
DateTimeUTC,F1_M11,P_M11,Q1_M11,Q2_M11,T1_M11,T2_M11,T3_M11,T4_M11,T5_M11,U1_M11,ZSPAN_M11,X0_M11,X2_M11,X1_M11
2024-02-02 11:00:00,SystemResetWarning,0819.3,5.00,000.00,022.7,021.9,000.0,031.0,024.3,12.0,0000.0,0010.28,0004.04,0003.37
2024-02-02 11:01:00,SystemResetWarning,0819.3,4.99,000.00,022.7,021.9,000.0,031.0,024.3,12.0,0000.0,0010.51,0004.06,0003.38
2024-02-02 11:02:00,SystemResetWarning,0819.3,5.00,000.00,022.7,021.9,000.0,031.0,024.3,12.0,0000.0,0010.98,0004.11,0003.39
2024-02-02 11:03:00,SystemResetWarning,0819.3,5.00,000.00,022.7,021.9,000.0,031.0,024.3,12.0,0000.0,0010.95,0004.13,0003.40
2024-02-02 11:04:00,SystemResetWarning,0819.3,4.99,000.00,022.7,021.9,000.0,031.0,024.3,12.0,0003.6,0010.58,0004.14,0003.41
2024-02-02 11:05:00,SystemResetWarning,0819.3,5.01,000.00,022.7,021.9,000.0,031.0,024.3,11.9,0005.0,0010.32,0004.10,0003.39
2024-02-02 11:06:00,SystemResetWarning,0819.4,5.02,000.00,022.7,021.9,000.0,031.0,024.3,11.9,0003.8,0011.04,0004.03,0003.35
2024-02-02 11:07:00,SystemResetWarning,0819.3,4.99,000.00,022.6,021.9,000.0,031.0,024.3,11.9,0000.0,0010.53,0003.89,0003.28
2024-02-02 11:08:00,SystemResetWarning,0819.3,4.99,000.00,022.6,021.9,000.0,031.0,024.3,11.9,0000.0,0010.44,0003.79,0003.22
2024-02-02 11:09:00,SystemResetWarning,0819.3,5.00,000.00,022.6,021.9,000.0,031.0,024.3,11.9,0000.0,0010.42,0003.68,0003.16
2024-02-02 11:10:00,SystemResetWarning,0819.3,5.00,000.00,022.6,021.9,000.0,031.0,024.3,11.9,0000.0,0010.91,0003.57,0003.10
2024-02-02 11:11:00,SystemResetWarning,0819.3,5.00,000.00,022.6,021.9,000.0,031.0,024.3,11.9,0000.0,0010.24,0003.48,0002.99
2024-02-02 11:12:00,SystemResetWarning,0819.3,5.00,000.00,022.6,021.9,000.0,031.0,024.3,11.9,0000.0,0010.05,0003.38,0002.87
2024-02-02 11:13:00,SystemResetWarning,0819.3,5.01,000.00,022.6,021.9,000.0,030.9,024.3,11.9,0000.0,0009.38,0003.28,0002.74
2024-02-02 11:14:00,SystemResetWarning,0819.3,5.01,000.00,022.6,021.9,000.0,030.9,024.2,12.0,0000.0,0009.24,0003.20,0002.63
2024-02-02 11:15:00,SystemResetWarning,0819.3,4.99,000.00,022.6,021.8,000.0,030.9,024.2,12.0,0000.0,0009.12,0003.12,0002.51
2024-02-02 11:16:00,SystemResetWarning,0819.5,4.98,000.00,022.6,021.8,000.0,030.9,024.2,12.0,0000.0,0008.79,0003.08,0002.44
2024-02-02 11:17:00,SystemResetWarning,0819.4,5.01,000.00,022.6,021.8,000.0,030.9,024.2,12.0,0000.0,0007.76,0003.07,0002.45
2024-02-02 11:18:00,SystemResetWarning,0819.3,5.01,000.00,022.6,021.8,000.0,030.9,024.2,12.0,0000.0,0008.71,0003.10,0002.46
2024-02-02 11:19:00,SystemResetWarning,0819.4,5.00,000.00,022.6,021.8,000.0,030.9,024.2,12.0,0000.0,0008.45,0003.12,0002.49
2024-02-02 11:20:00,SystemResetWarning,0819.4,5.00,000.00,022.5,021.8,000.0,030.9,024.2,12.2,0000.0,0008.42,0003.13,0002.51
2024-02-02 11:21:00,SystemResetWarning,0819.3,4.99,000.00,022.5,021.8,000.0,030.9,024.2,12.1,0000.0,0007.70,0003.15,0002.55
2024-02-02 11:22:00,SystemResetWarning,0819.4,4.99,000.00,022.5,021.8,000.0,030.9,024.2,12.1,0000.0,0007.68,0003.20,0002.59
2024-02-02 11:23:00,SystemResetWarning,0819.5,5.00,000.00,022.5,021.8,000.0,030.9,024.2,12.1,0000.0,0007.67,0003.27,0002.63
2024-02-02 11:24:00,SystemResetWarning,0819.5,5.00,000.00,022.5,021.8,000.0,030.9,024.2,12.0,0000.0,0007.76,0003.29,0002.67
2024-02-02 11:25:00,SystemResetWarning,0819.3,5.00,000.00,022.5,021.8,000.0,030.9,024.2,12.0,0000.0,0007.81,0003.33,0002.72
2024-02-02 11:26:00,SystemResetWarning,0819.3,5.01,000.00,022.5,021.8,000.0,030.9,024.2,12.0,0000.0,0007.83,0003.35,0002.76
2024-02-02 11:27:00,SystemResetWarning,0819.3,4.99,000.00,022.5,021.8,000.0,030.9,024.2,12.1,0000.0,0007.77,0003.36,0002.79
2024-02-02 11:28:00,SystemResetWarning,0819.4,5.00,000.00,022.5,021.8,000.0,030.8,024.1,12.1,0000.0,0007.79,0003.38,0002.82
2024-02-02 11:29:00,SystemResetWarning,0819.3,5.00,000.00,022.5,021.8,000.0,030.8,024.2,12.1,0000.0,0007.13,0003.44,0002.85
2024-02-02 11:30:00,SystemResetWarning,0819.3,5.00,000.00,022.5,021.8,000.0,030.8,024.1,12.1,0000.0,0007.59,0003.48,0002.89
2024-02-02 11:31:00,SystemResetWarning,0819.3,5.00,000.00,022.5,021.8,000.0,030.8,024.1,12.1,0000.0,0007.73,0003.55,0002.94
2024-02-02 11:32:00,SystemResetWarning,0819.3,5.00,000.00,022.5,021.8,000.0,030.8,024.1,12.1,0000.0,0007.97,0003.55,0002.98
2024-02-02 11:33:00,SystemResetWarning,0819.3,5.00,000.00,022.5,021.8,000.0,030.8,024.1,12.0,0000.0,0007.94,0003.53,0002.99
2024-02-02 11:34:00,SystemResetWarning,0819.3,5.00,000.00,022.5,021.8,000.0,030.8,024.1,12.0,0000.0,0007.89,0003.48,0002.95
2024-02-02 11:35:00,SystemResetWarning,0819.3,5.00,000.00,022.5,021.8,000.0,030.8,024.1,12.0,0000.0,0008.35,0003.45,0002.92
2024-02-02 11:36:00,SystemResetWarning,0819.4,5.00,000.00,022.5,021.7,000.0,030.8,024.1,12.0,0000.0,0008.32,0003.44,0002.90
2024-02-02 11:37:00,SystemResetWarning,0819.4,5.01,000.00,022.4,021.7,000.0,030.8,024.1,12.0,0000.0,0008.41,0003.42,0002.88
2024-02-02 11:38:00,SystemResetWarning,0819.3,5.00,000.00,022.4,021.7,000.0,030.8,024.1,12.0,0000.0,0008.83,0003.41,0002.86
2024-02-02 11:39:00,SystemResetWarning,0819.4,5.00,000.00,022.4,021.7,000.0,030.8,024.1,12.0,0000.0,0008.74,0003.36,0002.84
2024-02-02 11:40:00,SystemResetWarning,0819.3,5.00,000.00,022.4,021.7,000.0,030.8,024.1,12.0,0000.0,0008.64,0003.31,0002.83
2024-02-02 11:41:00,SystemResetWarning,0819.4,5.00,000.00,022.4,021.7,000.0,030.8,024.1,12.0,0000.0,0008.24,0003.27,0002.81
2024-02-02 11:42:00,SystemResetWarning,0819.3,5.00,000.00,022.4,021.7,000.0,030.8,024.1,12.0,0000.0,0008.05,0003.21,0002.79
2024-02-02 11:43:00,SystemResetWarning,0819.4,5.00,000.00,022.4,021.7,000.0,030.8,024.1,12.0,0000.0,0008.06,0003.23,0002.76
2024-02-02 11:44:00,SystemResetWarning,0819.3,5.00,000.00,022.4,021.7,000.0,030.8,024.1,12.1,0000.0,0008.78,0003.24,0002.75
2024-02-02 11:45:00,SystemResetWarning,0819.3,5.00,000.00,022.4,021.7,000.0,030.8,024.1,12.1,0000.0,0008.76,0003.26,0002.78
2024-02-02 11:46:00,SystemResetWarning,0819.3,5.00,000.00,022.4,021.7,000.0,030.8,024.1,12.1,0000.0,0008.35,0003.27,0002.78
2024-02-02 11:47:00,SystemResetWarning,0819.3,5.00,000.00,022.4,021.7,000.0,030.7,024.1,12.0,0000.0,0008.41,0003.24,0002.76
2024-02-02 11:48:00,SystemResetWarning,0819.3,5.00,000.00,022.4,021.7,000.0,030.7,024.1,12.0,0000.0,0008.57,0003.26,0002.77
2024-02-02 11:49:00,SystemResetWarning,0819.3,5.00,000.00,022.4,021.7,000.0,030.7,024.1,12.1,0000.0,0008.09,0003.25,0002.76
2024-02-02 11:50:00,SystemResetWarning,0819.4,4.99,000.00,022.4,021.7,000.0,030.7,024.1,12.1,0000.0,0008.41,0003.26,0002.74
2024-02-02 11:51:00,SystemResetWarning,0819.4,5.00,000.00,022.4,021.7,000.0,030.7,024.0,12.1,0000.0,0008.99,0003.25,0002.73
2024-02-02 11:52:00,SystemResetWarning,0819.3,4.99,000.00,022.4,021.7,000.0,030.7,024.0,12.1,0000.0,0008.49,0003.26,0002.71
2024-02-02 11:53:00,SystemResetWarning,0819.3,5.00,000.00,022.4,021.7,000.0,030.7,024.0,12.1,0000.0,0008.52,0003.26,0002.68
2024-02-02 11:54:00,SystemResetWarning,0819.3,5.00,000.00,022.4,021.7,000.0,030.7,024.1,12.1,0000.0,0009.51,0003.24,0002.68
2024-02-02 11:55:00,SystemResetWarning,0819.3,5.00,000.00,022.4,021.7,000.0,030.7,024.1,12.1,0000.0,0008.98,0003.24,0002.67
2024-02-02 11:56:00,SystemResetWarning,0819.3,5.00,000.00,022.4,021.7,000.0,030.7,024.0,12.1,0000.0,0008.85,0003.23,0002.65
2024-02-02 11:57:00,SystemResetWarning,0819.3,5.02,000.00,022.4,021.7,000.0,030.7,024.0,12.1,0000.0,0008.95,0003.21,0002.66
2024-02-02 11:58:00,SystemResetWarning,0819.3,5.00,000.00,022.4,021.7,000.0,030.7,024.0,12.1,0000.0,0009.11,0003.31,0002.77
2024-02-02 11:59:00,SystemResetWarning,0819.3,5.00,000.00,022.4,021.7,000.0,030.7,024.1,12.1,0000.0,0009.38,0003.37,0002.86
